Time,TemperatureF,DewpointF,PressureIn,WindDirection,WindDirectionDegrees,WindSpeedMPH,WindSpeedGustMPH,Humidity,HourlyPrecipIn,Conditions,Clouds,dailyrainin,SoftwareType,DateUTC
2013-09-09 00:01:00,72.9,58.7,30.06,NNE,28,1.0,4.0,61,0.00,,---,0.00,VWS V14.01,2013-09-09 04:01:00,
2013-09-09 00:02:00,72.8,58.1,30.06,NNE,26,0.0,1.0,60,0.00,,---,0.00,VWS V14.01,2013-09-09 04:02:00,
2013-09-09 00:07:00,72.6,57.9,30.07,NW,315,0.0,1.0,60,0.00,,---,0.00,VWS V14.01,2013-09-09 04:07:00,
2013-09-09 00:12:00,72.3,57.2,30.07,ENE,75,1.0,3.0,59,0.00,,---,0.00,VWS V14.01,2013-09-09 04:12:00,
2013-09-09 00:17:00,72.2,56.6,30.07,East,85,0.0,3.0,58,0.00,,---,0.00,VWS V14.01,2013-09-09 04:17:00,
2013-09-09 00:22:00,72.0,56.9,30.07,East,85,0.0,3.0,59,0.00,,---,0.00,VWS V14.01,2013-09-09 04:22:00,
2013-09-09 00:28:00,71.8,56.7,30.07,East,85,1.0,3.0,59,0.00,,---,0.00,VWS V14.01,2013-09-09 04:28:00,
2013-09-09 00:33:00,71.6,56.5,30.07,East,84,0.0,1.0,59,0.00,,---,0.00,VWS V14.01,2013-09-09 04:33:00,
2013-09-09 00:38:00,71.4,56.3,30.07,East,83,0.0,1.0,59,0.00,,---,0.00,VWS V14.01,2013-09-09 04:38:00,
2013-09-09 00:43:00,71.1,56.1,30.08,East,84,0.0,1.0,59,0.00,,---,0.00,VWS V14.01,2013-09-09 04:43:00,
2013-09-09 00:48:00,71.1,56.1,30.08,East,89,0.0,2.0,59,0.00,,---,0.00,VWS V14.01,2013-09-09 04:48:00,
2013-09-09 00:53:00,71.0,56.0,30.08,East,83,1.0,2.0,59,0.00,,---,0.00,VWS V14.01,2013-09-09 04:53:00,
2013-09-09 00:58:00,70.9,55.9,30.08,West,267,0.0,2.0,59,0.00,,---,0.00,VWS V14.01,2013-09-09 04:58:00,
2013-09-09 01:03:00,70.7,55.7,30.08,West,260,0.0,1.0,59,0.00,,---,0.00,VWS V14.01,2013-09-09 05:03:00,
2013-09-09 01:08:00,70.5,55.5,30.09,NNE,26,0.0,1.0,59,0.00,,---,0.00,VWS V14.01,2013-09-09 05:08:00,
2013-09-09 01:13:00,70.3,55.8,30.09,NNE,26,0.0,1.0,60,0.00,,---,0.00,VWS V14.01,2013-09-09 05:13:00,
2013-09-09 01:18:00,70.2,54.8,30.09,East,85,1.0,4.0,58,0.00,,---,0.00,VWS V14.01,2013-09-09 05:18:00,
2013-09-09 01:24:00,70.1,54.2,30.09,NE,48,2.0,4.0,57,0.00,,---,0.00,VWS V14.01,2013-09-09 05:24:00,
2013-09-09 01:29:00,70.1,54.7,30.09,NNE,21,0.0,4.0,58,0.00,,---,0.00,VWS V14.01,2013-09-09 05:29:00,
2013-09-09 01:34:00,70.0,54.6,30.09,NNE,13,0.0,1.0,58,0.00,,---,0.00,VWS V14.01,2013-09-09 05:34:00,
2013-09-09 01:39:00,69.8,54.4,30.09,East,79,0.0,2.0,58,0.00,,---,0.00,VWS V14.01,2013-09-09 05:39:00,
2013-09-09 01:44:00,69.8,53.9,30.09,WNW,297,0.0,5.0,57,0.00,,---,0.00,VWS V14.01,2013-09-09 05:44:00,
2013-09-09 01:49:00,69.7,53.3,30.09,NNW,346,2.0,5.0,56,0.00,,---,0.00,VWS V14.01,2013-09-09 05:49:00,
2013-09-09 01:54:00,69.7,53.3,30.09,WSW,255,0.0,5.0,56,0.00,,---,0.00,VWS V14.01,2013-09-09 05:54:00,
2013-09-09 01:59:00,69.7,53.3,30.10,WSW,241,0.0,5.0,56,0.00,,---,0.00,VWS V14.01,2013-09-09 05:59:00,
2013-09-09 02:04:00,69.6,52.7,30.10,West,281,1.0,1.0,55,0.00,,---,0.00,VWS V14.01,2013-09-09 06:04:00,
2013-09-09 02:09:00,69.5,52.2,30.09,ENE,65,1.0,3.0,54,0.00,,---,0.00,VWS V14.01,2013-09-09 06:09:00,
2013-09-09 02:14:00,69.5,52.2,30.09,East,84,0.0,3.0,54,0.00,,---,0.00,VWS V14.01,2013-09-09 06:14:00,
2013-09-09 02:19:00,69.3,52.5,30.09,West,278,0.0,3.0,55,0.00,,---,0.00,VWS V14.01,2013-09-09 06:19:00,
2013-09-09 02:25:00,69.0,52.2,30.10,NNW,347,1.0,7.0,55,0.00,,---,0.00,VWS V14.01,2013-09-09 06:25:00,
2013-09-09 02:30:00,68.9,52.1,30.10,North,11,0.0,7.0,55,0.00,,---,0.00,VWS V14.01,2013-09-09 06:30:00,
2013-09-09 02:35:00,68.6,51.8,30.10,ENE,69,1.0,3.0,55,0.00,,---,0.00,VWS V14.01,2013-09-09 06:35:00,
2013-09-09 02:40:00,68.3,52.0,30.10,ENE,73,1.0,3.0,56,0.00,,---,0.00,VWS V14.01,2013-09-09 06:40:00,
2013-09-09 02:45:00,68.2,51.9,30.10,NW,316,0.0,4.0,56,0.00,,---,0.00,VWS V14.01,2013-09-09 06:45:00,
2013-09-09 02:50:00,68.0,52.2,30.10,SSE,165,0.0,4.0,57,0.00,,---,0.00,VWS V14.01,2013-09-09 06:50:00,
2013-09-09 02:55:00,67.8,52.0,30.10,SSE,165,0.0,4.0,57,0.00,,---,0.00,VWS V14.01,2013-09-09 06:55:00,
2013-09-09 03:00:00,67.5,51.8,30.11,NE,39,1.0,4.0,57,0.00,,---,0.00,VWS V14.01,2013-09-09 07:00:00,
2013-09-09 03:05:00,67.4,52.1,30.10,ENE,71,0.0,3.0,58,0.00,,---,0.00,VWS V14.01,2013-09-09 07:05:00,
2013-09-09 03:10:00,67.3,52.0,30.11,East,83,1.0,3.0,58,0.00,,---,0.00,VWS V14.01,2013-09-09 07:10:00,
2013-09-09 03:15:00,67.1,51.8,30.11,NW,311,0.0,3.0,58,0.00,,---,0.00,VWS V14.01,2013-09-09 07:15:00,
2013-09-09 03:20:00,66.9,51.7,30.11,WSW,248,0.0,3.0,58,0.00,,---,0.00,VWS V14.01,2013-09-09 07:20:00,
2013-09-09 03:25:00,66.7,51.5,30.11,West,267,0.0,3.0,58,0.00,,---,0.00,VWS V14.01,2013-09-09 07:25:00,
2013-09-09 03:30:00,66.6,51.4,30.11,West,267,0.0,3.0,58,0.00,,---,0.00,VWS V14.01,2013-09-09 07:30:00,
2013-09-09 03:35:00,66.5,51.8,30.11,West,267,0.0,1.0,59,0.00,,---,0.00,VWS V14.01,2013-09-09 07:35:00,
2013-09-09 03:41:00,66.4,51.2,30.11,NNE,13,0.0,3.0,58,0.00,,---,0.00,VWS V14.01,2013-09-09 07:41:00,
2013-09-09 03:46:00,66.3,51.1,30.11,NNW,335,0.0,3.0,58,0.00,,---,0.00,VWS V14.01,2013-09-09 07:46:00,
2013-09-09 03:51:00,66.1,50.4,30.11,ENE,65,1.0,3.0,57,0.00,,---,0.00,VWS V14.01,2013-09-09 07:51:00,
2013-09-09 03:56:00,66.0,50.8,30.11,NE,39,0.0,3.0,58,0.00,,---,0.00,VWS V14.01,2013-09-09 07:56:00,
2013-09-09 04:01:00,65.9,50.7,30.11,NE,53,0.0,0.0,58,0.00,,---,0.00,VWS V14.01,2013-09-09 08:01:00,
2013-09-09 04:06:00,65.8,50.2,30.11,NE,53,0.0,1.0,57,0.00,,---,0.00,VWS V14.01,2013-09-09 08:06:00,
2013-09-09 04:11:00,65.8,50.6,30.11,SW,236,0.0,1.0,58,0.00,,---,0.00,VWS V14.01,2013-09-09 08:11:00,
2013-09-09 04:16:00,65.7,51.0,30.12,SW,236,0.0,1.0,59,0.00,,---,0.00,VWS V14.01,2013-09-09 08:16:00,
2013-09-09 04:21:00,65.6,50.4,30.12,NNW,336,0.0,5.0,58,0.00,,---,0.00,VWS V14.01,2013-09-09 08:21:00,
2013-09-09 04:26:00,65.5,50.8,30.12,WSW,243,0.0,5.0,59,0.00,,---,0.00,VWS V14.01,2013-09-09 08:26:00,
2013-09-09 04:31:00,65.3,50.6,30.12,SW,215,0.0,0.0,59,0.00,,---,0.00,VWS V14.01,2013-09-09 08:31:00,
2013-09-09 04:36:00,65.1,50.9,30.12,SW,228,1.0,1.0,60,0.00,,---,0.00,VWS V14.01,2013-09-09 08:36:00,
2013-09-09 04:41:00,65.0,50.3,30.12,NNE,23,0.0,1.0,59,0.00,,---,0.00,VWS V14.01,2013-09-09 08:41:00,
2013-09-09 04:46:00,64.9,50.7,30.12,NNE,20,0.0,1.0,60,0.00,,---,0.00,VWS V14.01,2013-09-09 08:46:00,
2013-09-09 04:52:00,65.0,50.8,30.13,SW,235,0.0,1.0,60,0.00,,---,0.00,VWS V14.01,2013-09-09 08:52:00,
2013-09-09 04:57:00,65.0,50.8,30.13,SW,235,0.0,1.0,60,0.00,,---,0.00,VWS V14.01,2013-09-09 08:57:00,
2013-09-09 05:02:00,65.0,50.8,30.13,SW,235,0.0,0.0,60,0.00,,---,0.00,VWS V14.01,2013-09-09 09:02:00,
2013-09-09 05:07:00,65.0,50.8,30.13,SW,235,0.0,0.0,60,0.00,,---,0.00,VWS V14.01,2013-09-09 09:07:00,
2013-09-09 05:12:00,65.0,50.3,30.14,West,262,0.0,0.0,59,0.00,,---,0.00,VWS V14.01,2013-09-09 09:12:00,
2013-09-09 05:17:00,65.0,50.3,30.14,North,356,0.0,1.0,59,0.00,,---,0.00,VWS V14.01,2013-09-09 09:17:00,
2013-09-09 05:22:00,64.9,50.7,30.14,North,356,1.0,1.0,60,0.00,,---,0.00,VWS V14.01,2013-09-09 09:22:00,
2013-09-09 05:27:00,65.0,50.8,30.14,WSW,256,0.0,2.0,60,0.00,,---,0.00,VWS V14.01,2013-09-09 09:27:00,
2013-09-09 05:32:00,64.9,50.7,30.14,WSW,256,1.0,1.0,60,0.00,,---,0.00,VWS V14.01,2013-09-09 09:32:00,
2013-09-09 05:37:00,64.7,50.5,30.14,WNW,302,0.0,1.0,60,0.00,,---,0.00,VWS V14.01,2013-09-09 09:37:00,
2013-09-09 05:42:00,64.5,50.3,30.14,North,8,0.0,3.0,60,0.00,,---,0.00,VWS V14.01,2013-09-09 09:42:00,
2013-09-09 05:47:00,64.3,51.0,30.15,WNW,293,0.0,3.0,62,0.00,,---,0.00,VWS V14.01,2013-09-09 09:47:00,
2013-09-09 05:52:00,64.2,50.9,30.15,NNW,346,0.0,3.0,62,0.00,,---,0.00,VWS V14.01,2013-09-09 09:52:00,
2013-09-09 05:57:00,64.2,50.5,30.15,NNW,346,0.0,3.0,61,0.00,,---,0.00,VWS V14.01,2013-09-09 09:57:00,
2013-09-09 06:03:00,64.2,50.5,30.15,NNW,347,0.0,0.0,61,0.00,,---,0.00,VWS V14.01,2013-09-09 10:03:00,
2013-09-09 06:08:00,64.1,50.0,30.16,WNW,292,0.0,0.0,60,0.00,,---,0.00,VWS V14.01,2013-09-09 10:08:00,
2013-09-09 06:13:00,64.0,50.3,30.16,WNW,293,0.0,0.0,61,0.00,,---,0.00,VWS V14.01,2013-09-09 10:13:00,
2013-09-09 06:18:00,64.0,49.8,30.16,West,281,0.0,3.0,60,0.00,,---,0.00,VWS V14.01,2013-09-09 10:18:00,
2013-09-09 06:23:00,64.1,50.4,30.16,SE,128,0.0,3.0,61,0.00,,---,0.00,VWS V14.01,2013-09-09 10:23:00,
2013-09-09 06:28:00,64.1,50.4,30.16,SE,128,0.0,3.0,61,0.00,,---,0.00,VWS V14.01,2013-09-09 10:28:00,
2013-09-09 06:33:00,64.1,50.4,30.16,SE,129,0.0,0.0,61,0.00,,---,0.00,VWS V14.01,2013-09-09 10:33:00,
2013-09-09 06:38:00,64.1,50.0,30.16,SE,128,0.0,0.0,60,0.00,,---,0.00,VWS V14.01,2013-09-09 10:38:00,
2013-09-09 06:43:00,64.1,50.4,30.17,SE,129,0.0,0.0,61,0.00,,---,0.00,VWS V14.01,2013-09-09 10:43:00,
2013-09-09 06:48:00,63.9,50.2,30.17,SSW,201,0.0,0.0,61,0.00,,---,0.00,VWS V14.01,2013-09-09 10:48:00,
2013-09-09 06:53:00,63.9,50.6,30.17,SSW,205,0.0,0.0,62,0.00,,---,0.00,VWS V14.01,2013-09-09 10:53:00,
2013-09-09 06:58:00,63.9,50.6,30.17,SSW,208,0.0,0.0,62,0.00,,---,0.00,VWS V14.01,2013-09-09 10:58:00,
2013-09-09 07:03:00,64.1,50.8,30.18,West,267,0.0,0.0,62,0.00,,---,0.00,VWS V14.01,2013-09-09 11:03:00,
2013-09-09 07:09:00,64.1,50.8,30.17,West,267,0.0,1.0,62,0.00,,---,0.00,VWS V14.01,2013-09-09 11:09:00,
2013-09-09 07:14:00,64.2,50.9,30.18,WSW,256,0.0,1.0,62,0.00,,---,0.00,VWS V14.01,2013-09-09 11:14:00,
2013-09-09 07:19:00,64.3,50.6,30.18,WSW,257,0.0,1.0,61,0.00,,---,0.00,VWS V14.01,2013-09-09 11:19:00,
2013-09-09 07:24:00,64.3,50.6,30.18,NNW,342,2.0,2.0,61,0.00,,---,0.00,VWS V14.01,2013-09-09 11:24:00,
2013-09-09 07:29:00,64.3,50.6,30.19,East,79,1.0,2.0,61,0.00,,---,0.00,VWS V14.01,2013-09-09 11:29:00,
2013-09-09 07:34:00,64.4,50.7,30.19,NNE,25,0.0,0.0,61,0.00,,---,0.00,VWS V14.01,2013-09-09 11:34:00,
2013-09-09 07:39:00,64.4,51.1,30.20,NNW,347,0.0,2.0,62,0.00,,---,0.00,VWS V14.01,2013-09-09 11:39:00,
2013-09-09 07:44:00,64.4,50.7,30.20,North,354,0.0,2.0,61,0.00,,---,0.00,VWS V14.01,2013-09-09 11:44:00,
2013-09-09 07:49:00,64.4,50.7,30.20,NNE,26,0.0,3.0,61,0.00,,---,0.00,VWS V14.01,2013-09-09 11:49:00,
2013-09-09 07:54:00,64.4,51.1,30.20,NW,317,0.0,3.0,62,0.00,,---,0.00,VWS V14.01,2013-09-09 11:54:00,
2013-09-09 07:59:00,64.4,50.7,30.20,NNW,348,0.0,3.0,61,0.00,,---,0.00,VWS V14.01,2013-09-09 11:59:00,
2013-09-09 08:04:00,64.5,51.2,30.20,SW,231,0.0,0.0,62,0.00,,---,0.00,VWS V14.01,2013-09-09 12:04:00,
2013-09-09 08:09:00,64.4,51.1,30.20,SW,232,0.0,0.0,62,0.00,,---,0.00,VWS V14.01,2013-09-09 12:09:00,
2013-09-09 08:14:00,64.4,50.7,30.20,NW,319,0.0,2.0,61,0.00,,---,0.00,VWS V14.01,2013-09-09 12:14:00,
2013-09-09 08:19:00,64.4,50.7,30.20,SW,232,0.0,2.0,61,0.00,,---,0.00,VWS V14.01,2013-09-09 12:19:00,
2013-09-09 08:25:00,64.4,51.1,30.20,SW,226,0.0,2.0,62,0.00,,---,0.00,VWS V14.01,2013-09-09 12:25:00,
2013-09-09 08:30:00,64.4,51.5,30.20,SW,226,0.0,2.0,63,0.00,,---,0.00,VWS V14.01,2013-09-09 12:30:00,
2013-09-09 08:35:00,64.5,51.6,30.20,SW,226,0.0,0.0,63,0.00,,---,0.00,VWS V14.01,2013-09-09 12:35:00,
2013-09-09 08:40:00,64.6,51.7,30.19,WNW,294,0.0,1.0,63,0.00,,---,0.00,VWS V14.01,2013-09-09 12:40:00,
2013-09-09 08:45:00,64.7,51.8,30.20,West,262,0.0,1.0,63,0.00,,---,0.00,VWS V14.01,2013-09-09 12:45:00,
2013-09-09 08:50:00,64.9,51.6,30.19,WNW,283,0.0,1.0,62,0.00,,---,0.00,VWS V14.01,2013-09-09 12:50:00,
2013-09-09 08:55:00,65.2,51.9,30.19,WNW,283,0.0,1.0,62,0.00,,---,0.00,VWS V14.01,2013-09-09 12:55:00,
2013-09-09 09:00:00,65.6,52.2,30.20,WSW,243,0.0,1.0,62,0.00,,---,0.00,VWS V14.01,2013-09-09 13:00:00,
2013-09-09 09:05:00,65.9,52.1,30.20,NNW,346,2.0,2.0,61,0.00,,---,0.00,VWS V14.01,2013-09-09 13:05:00,
2013-09-09 09:10:00,65.9,52.5,30.20,WNW,292,0.0,2.0,62,0.00,,---,0.00,VWS V14.01,2013-09-09 13:10:00,
2013-09-09 09:15:00,66.0,52.6,30.20,WNW,294,0.0,2.0,62,0.00,,---,0.00,VWS V14.01,2013-09-09 13:15:00,
2013-09-09 09:20:00,66.2,52.8,30.20,WNW,283,1.0,2.0,62,0.00,,---,0.00,VWS V14.01,2013-09-09 13:20:00,
2013-09-09 09:25:00,66.6,53.2,30.20,NE,40,1.0,2.0,62,0.00,,---,0.00,VWS V14.01,2013-09-09 13:25:00,
2013-09-09 09:31:00,67.2,53.3,30.20,NW,311,0.0,2.0,61,0.00,,---,0.00,VWS V14.01,2013-09-09 13:31:00,
2013-09-09 09:36:00,67.8,53.0,30.20,NE,56,0.0,2.0,59,0.00,,---,0.00,VWS V14.01,2013-09-09 13:36:00,
2013-09-09 09:41:00,68.4,53.5,30.20,SE,128,0.0,2.0,59,0.00,,---,0.00,VWS V14.01,2013-09-09 13:41:00,
2013-09-09 09:46:00,68.7,53.3,30.20,NE,38,0.0,2.0,58,0.00,,---,0.00,VWS V14.01,2013-09-09 13:46:00,
2013-09-09 09:51:00,69.1,54.2,30.20,NE,50,1.0,2.0,59,0.00,,---,0.00,VWS V14.01,2013-09-09 13:51:00,
2013-09-09 09:56:00,69.6,54.7,30.20,NE,50,0.0,2.0,59,0.00,,---,0.00,VWS V14.01,2013-09-09 13:56:00,
2013-09-09 10:01:00,70.6,55.1,30.20,NE,50,0.0,0.0,58,0.00,,---,0.00,VWS V14.01,2013-09-09 14:01:00,
2013-09-09 10:06:00,71.0,55.5,30.20,North,5,0.0,2.0,58,0.00,,---,0.00,VWS V14.01,2013-09-09 14:06:00,
2013-09-09 10:11:00,71.5,55.5,30.21,NE,39,0.0,4.0,57,0.00,,---,0.00,VWS V14.01,2013-09-09 14:11:00,
2013-09-09 10:16:00,71.7,56.2,30.21,SW,225,0.0,4.0,58,0.00,,---,0.00,VWS V14.01,2013-09-09 14:16:00,
2013-09-09 10:21:00,72.0,56.0,30.21,NNE,29,0.0,4.0,57,0.00,,---,0.00,VWS V14.01,2013-09-09 14:21:00,
2013-09-09 10:26:00,71.7,55.2,30.21,ESE,122,2.0,4.0,56,0.00,,---,0.00,VWS V14.01,2013-09-09 14:26:00,
2013-09-09 10:31:00,71.3,55.3,30.21,ESE,110,0.0,0.0,57,0.00,,---,0.00,VWS V14.01,2013-09-09 14:31:00,
2013-09-09 10:36:00,71.6,55.6,30.21,South,172,0.0,1.0,57,0.00,,---,0.00,VWS V14.01,2013-09-09 14:36:00,
2013-09-09 10:42:00,71.7,56.2,30.21,SE,139,0.0,1.0,58,0.00,,---,0.00,VWS V14.01,2013-09-09 14:42:00,
2013-09-09 10:47:00,71.8,55.8,30.21,SE,132,0.0,1.0,57,0.00,,---,0.00,VWS V14.01,2013-09-09 14:47:00,
2013-09-09 10:52:00,71.8,56.2,30.21,NNE,33,1.0,1.0,58,0.00,,---,0.00,VWS V14.01,2013-09-09 14:52:00,
2013-09-09 10:57:00,71.8,55.8,30.21,NNE,32,0.0,1.0,57,0.00,,---,0.00,VWS V14.01,2013-09-09 14:57:00,
2013-09-09 11:02:00,71.9,56.8,30.21,NNE,33,0.0,0.0,59,0.00,,---,0.00,VWS V14.01,2013-09-09 15:02:00,
2013-09-09 11:07:00,72.2,56.6,30.21,NNE,32,0.0,0.0,58,0.00,,---,0.00,VWS V14.01,2013-09-09 15:07:00,
2013-09-09 11:12:00,72.3,56.2,30.21,NE,34,0.0,0.0,57,0.00,,---,0.00,VWS V14.01,2013-09-09 15:12:00,
2013-09-09 11:17:00,72.2,57.1,30.21,East,85,0.0,0.0,59,0.00,,---,0.00,VWS V14.01,2013-09-09 15:17:00,
2013-09-09 11:22:00,72.3,56.7,30.21,East,79,0.0,0.0,58,0.00,,---,0.00,VWS V14.01,2013-09-09 15:22:00,
2013-09-09 11:27:00,72.2,56.1,30.21,East,79,0.0,0.0,57,0.00,,---,0.00,VWS V14.01,2013-09-09 15:27:00,
2013-09-09 11:32:00,72.3,56.7,30.21,East,79,0.0,0.0,58,0.00,,---,0.00,VWS V14.01,2013-09-09 15:32:00,
2013-09-09 11:37:00,72.4,57.3,30.21,East,79,0.0,0.0,59,0.00,,---,0.00,VWS V14.01,2013-09-09 15:37:00,
2013-09-09 11:42:00,72.6,57.0,30.21,East,79,0.0,0.0,58,0.00,,---,0.00,VWS V14.01,2013-09-09 15:42:00,
2013-09-09 11:47:00,72.5,56.9,30.21,East,79,0.0,0.0,58,0.00,,---,0.00,VWS V14.01,2013-09-09 15:47:00,
2013-09-09 11:53:00,72.6,57.5,30.21,East,79,0.0,0.0,59,0.00,,---,0.00,VWS V14.01,2013-09-09 15:53:00,
2013-09-09 11:58:00,72.7,57.1,30.21,ENE,67,0.0,0.0,58,0.00,,---,0.00,VWS V14.01,2013-09-09 15:58:00,
2013-09-09 12:03:00,73.0,57.4,30.21,SW,229,0.0,0.0,58,0.00,,---,0.00,VWS V14.01,2013-09-09 16:03:00,
2013-09-09 12:08:00,73.5,58.3,30.20,SW,229,0.0,0.0,59,0.00,,---,0.00,VWS V14.01,2013-09-09 16:08:00,
2013-09-09 12:13:00,73.9,58.2,30.20,NNE,13,0.0,0.0,58,0.00,,---,0.00,VWS V14.01,2013-09-09 16:13:00,
2013-09-09 12:18:00,73.9,58.2,30.20,North,8,0.0,0.0,58,0.00,,---,0.00,VWS V14.01,2013-09-09 16:18:00,
2013-09-09 12:23:00,74.0,57.8,30.20,NW,316,0.0,0.0,57,0.00,,---,0.00,VWS V14.01,2013-09-09 16:23:00,
2013-09-09 12:28:00,74.0,58.3,30.20,NNE,30,0.0,0.0,58,0.00,,---,0.00,VWS V14.01,2013-09-09 16:28:00,
2013-09-09 12:33:00,74.1,58.4,30.20,NNE,23,0.0,0.0,58,0.00,,---,0.00,VWS V14.01,2013-09-09 16:33:00,
2013-09-09 12:38:00,74.4,59.2,30.20,WNW,302,0.0,0.0,59,0.00,,---,0.00,VWS V14.01,2013-09-09 16:38:00,
2013-09-09 12:43:00,74.3,58.6,30.20,West,259,0.0,0.0,58,0.00,,---,0.00,VWS V14.01,2013-09-09 16:43:00,
2013-09-09 12:48:00,74.4,58.7,30.20,West,270,0.0,0.0,58,0.00,,---,0.00,VWS V14.01,2013-09-09 16:48:00,
2013-09-09 12:53:00,74.6,59.3,30.20,SE,129,0.0,0.0,59,0.00,,---,0.00,VWS V14.01,2013-09-09 16:53:00,
2013-09-09 12:59:00,75.0,59.7,30.19,SSE,163,0.0,3.0,59,0.00,,---,0.00,VWS V14.01,2013-09-09 16:59:00,
2013-09-09 13:04:00,75.2,59.4,30.19,SE,136,1.0,3.0,58,0.00,,---,0.00,VWS V14.01,2013-09-09 17:04:00,
2013-09-09 13:09:00,75.3,60.0,30.19,SE,129,1.0,3.0,59,0.00,,---,0.00,VWS V14.01,2013-09-09 17:09:00,
2013-09-09 13:14:00,75.6,60.3,30.19,North,350,0.0,3.0,59,0.00,,---,0.00,VWS V14.01,2013-09-09 17:14:00,
2013-09-09 13:19:00,75.6,59.8,30.19,WSW,243,0.0,3.0,58,0.00,,---,0.00,VWS V14.01,2013-09-09 17:19:00,
2013-09-09 13:24:00,75.7,60.4,30.19,WNW,290,0.0,3.0,59,0.00,,---,0.00,VWS V14.01,2013-09-09 17:24:00,
2013-09-09 13:29:00,76.1,61.2,30.19,East,90,0.0,3.0,60,0.00,,---,0.00,VWS V14.01,2013-09-09 17:29:00,
2013-09-09 13:34:00,76.1,61.2,30.18,WSW,246,0.0,2.0,60,0.00,,---,0.00,VWS V14.01,2013-09-09 17:34:00,
2013-09-09 13:39:00,76.0,60.7,30.18,WNW,283,1.0,2.0,59,0.00,,---,0.00,VWS V14.01,2013-09-09 17:39:00,
2013-09-09 13:44:00,75.8,60.5,30.18,West,274,1.0,2.0,59,0.00,,---,0.00,VWS V14.01,2013-09-09 17:44:00,
2013-09-09 13:49:00,75.8,60.5,30.18,West,281,0.0,2.0,59,0.00,,---,0.00,VWS V14.01,2013-09-09 17:49:00,
2013-09-09 13:54:00,76.1,61.2,30.18,SW,233,1.0,2.0,60,0.00,,---,0.00,VWS V14.01,2013-09-09 17:54:00,
2013-09-09 13:59:00,76.6,61.7,30.18,SE,132,1.0,2.0,60,0.00,,---,0.00,VWS V14.01,2013-09-09 17:59:00,
2013-09-09 14:04:00,77.0,61.6,30.18,South,188,0.0,1.0,59,0.00,,---,0.00,VWS V14.01,2013-09-09 18:04:00,
2013-09-09 14:10:00,77.3,61.9,30.18,South,188,0.0,1.0,59,0.00,,---,0.00,VWS V14.01,2013-09-09 18:10:00,
2013-09-09 14:15:00,77.4,61.5,30.18,South,170,0.0,1.0,58,0.00,,---,0.00,VWS V14.01,2013-09-09 18:15:00,
2013-09-09 14:20:00,77.4,61.5,30.17,SSE,163,0.0,2.0,58,0.00,,---,0.00,VWS V14.01,2013-09-09 18:20:00,
2013-09-09 14:25:00,77.4,62.0,30.17,West,276,0.0,2.0,59,0.00,,---,0.00,VWS V14.01,2013-09-09 18:25:00,
2013-09-09 14:30:00,77.3,61.4,30.17,West,266,0.0,2.0,58,0.00,,---,0.00,VWS V14.01,2013-09-09 18:30:00,
2013-09-09 14:35:00,77.6,62.6,30.17,SSE,160,0.0,1.0,60,0.00,,---,0.00,VWS V14.01,2013-09-09 18:35:00,
2013-09-09 14:40:00,78.0,62.5,30.17,NNW,347,0.0,1.0,59,0.00,,---,0.00,VWS V14.01,2013-09-09 18:40:00,
2013-09-09 14:45:00,78.3,62.3,30.17,West,272,1.0,2.0,58,0.00,,---,0.00,VWS V14.01,2013-09-09 18:45:00,
2013-09-09 14:50:00,78.1,62.6,30.17,SE,129,0.0,2.0,59,0.00,,---,0.00,VWS V14.01,2013-09-09 18:50:00,
2013-09-09 14:55:00,78.3,62.3,30.17,WSW,249,1.0,2.0,58,0.00,,---,0.00,VWS V14.01,2013-09-09 18:55:00,
2013-09-09 15:00:00,78.3,62.8,30.16,South,190,0.0,3.0,59,0.00,,---,0.00,VWS V14.01,2013-09-09 19:00:00,
2013-09-09 15:05:00,78.5,62.5,30.16,SSE,158,1.0,3.0,58,0.00,,---,0.00,VWS V14.01,2013-09-09 19:05:00,
2013-09-09 15:10:00,78.8,63.3,30.16,SSE,159,0.0,3.0,59,0.00,,---,0.00,VWS V14.01,2013-09-09 19:10:00,
2013-09-09 15:15:00,79.3,63.3,30.16,West,263,1.0,3.0,58,0.00,,---,0.00,VWS V14.01,2013-09-09 19:15:00,
2013-09-09 15:21:00,79.3,63.3,30.16,SSW,203,0.0,3.0,58,0.00,,---,0.00,VWS V14.01,2013-09-09 19:21:00,
2013-09-09 15:26:00,79.2,63.2,30.16,WSW,248,1.0,3.0,58,0.00,,---,0.00,VWS V14.01,2013-09-09 19:26:00,
2013-09-09 15:31:00,78.9,62.9,30.16,WSW,245,2.0,4.0,58,0.00,,---,0.00,VWS V14.01,2013-09-09 19:31:00,
2013-09-09 15:36:00,78.6,63.6,30.16,SE,124,2.0,3.0,60,0.00,,---,0.00,VWS V14.01,2013-09-09 19:36:00,
2013-09-09 15:41:00,79.0,63.5,30.16,WSW,249,0.0,3.0,59,0.00,,---,0.00,VWS V14.01,2013-09-09 19:41:00,
2013-09-09 15:46:00,79.1,63.6,30.15,West,276,0.0,3.0,59,0.00,,---,0.00,VWS V14.01,2013-09-09 19:46:00,
2013-09-09 15:51:00,79.4,63.8,30.15,NE,51,1.0,3.0,59,0.00,,---,0.00,VWS V14.01,2013-09-09 19:51:00,
2013-09-09 15:56:00,79.5,63.9,30.15,SW,215,0.0,3.0,59,0.00,,---,0.00,VWS V14.01,2013-09-09 19:56:00,
2013-09-09 16:01:00,79.4,63.8,30.15,West,276,0.0,0.0,59,0.00,,---,0.00,VWS V14.01,2013-09-09 20:01:00,
2013-09-09 16:06:00,79.3,64.7,30.15,West,270,1.0,3.0,61,0.00,,---,0.00,VWS V14.01,2013-09-09 20:06:00,
2013-09-09 16:11:00,79.4,63.8,30.15,SSW,194,0.0,3.0,59,0.00,,---,0.00,VWS V14.01,2013-09-09 20:11:00,
2013-09-09 16:16:00,79.4,64.3,30.15,North,359,0.0,3.0,60,0.00,,---,0.00,VWS V14.01,2013-09-09 20:16:00,
2013-09-09 16:21:00,79.5,64.4,30.15,East,100,0.0,4.0,60,0.00,,---,0.00,VWS V14.01,2013-09-09 20:21:00,
2013-09-09 16:27:00,80.0,64.9,30.15,WSW,246,2.0,4.0,60,0.00,,---,0.00,VWS V14.01,2013-09-09 20:27:00,
2013-09-09 16:32:00,80.6,65.9,30.15,WNW,297,0.0,1.0,61,0.00,,---,0.00,VWS V14.01,2013-09-09 20:32:00,
2013-09-09 16:37:00,80.8,65.2,30.15,North,354,0.0,1.0,59,0.00,,---,0.00,VWS V14.01,2013-09-09 20:37:00,
2013-09-09 16:42:00,80.3,64.7,30.15,WSW,255,0.0,2.0,59,0.00,,---,0.00,VWS V14.01,2013-09-09 20:42:00,
2013-09-09 16:47:00,79.7,64.6,30.15,SE,127,0.0,3.0,60,0.00,,---,0.00,VWS V14.01,2013-09-09 20:47:00,
2013-09-09 16:52:00,79.6,65.4,30.15,SE,128,0.0,3.0,62,0.00,,---,0.00,VWS V14.01,2013-09-09 20:52:00,
2013-09-09 16:57:00,79.8,65.6,30.15,East,91,1.0,3.0,62,0.00,,---,0.00,VWS V14.01,2013-09-09 20:57:00,
2013-09-09 17:02:00,79.9,65.3,30.15,SSW,200,0.0,1.0,61,0.00,,---,0.00,VWS V14.01,2013-09-09 21:02:00,
2013-09-09 17:07:00,80.0,65.4,30.14,SE,145,0.0,1.0,61,0.00,,---,0.00,VWS V14.01,2013-09-09 21:07:00,
2013-09-09 17:12:00,79.4,65.3,30.14,SE,145,0.0,1.0,62,0.00,,---,0.00,VWS V14.01,2013-09-09 21:12:00,
2013-09-09 17:17:00,78.9,65.2,30.14,ESE,103,0.0,4.0,63,0.00,,---,0.00,VWS V14.01,2013-09-09 21:17:00,
2013-09-09 17:22:00,78.6,65.0,30.14,SE,125,1.0,4.0,63,0.00,,---,0.00,VWS V14.01,2013-09-09 21:22:00,
2013-09-09 17:28:00,78.7,65.1,30.14,SE,142,1.0,4.0,63,0.00,,---,0.00,VWS V14.01,2013-09-09 21:28:00,
2013-09-09 17:33:00,78.7,65.5,30.14,West,259,0.0,4.0,64,0.00,,---,0.00,VWS V14.01,2013-09-09 21:33:00,
2013-09-09 17:38:00,78.8,65.6,30.14,SSE,148,0.0,4.0,64,0.00,,---,0.00,VWS V14.01,2013-09-09 21:38:00,
2013-09-09 17:43:00,78.6,65.4,30.14,SSW,200,1.0,4.0,64,0.00,,---,0.00,VWS V14.01,2013-09-09 21:43:00,
2013-09-09 17:48:00,78.3,65.6,30.14,West,274,0.0,4.0,65,0.00,,---,0.00,VWS V14.01,2013-09-09 21:48:00,
2013-09-09 17:53:00,78.2,65.9,30.14,WNW,293,1.0,4.0,66,0.00,,---,0.00,VWS V14.01,2013-09-09 21:53:00,
2013-09-09 17:58:00,77.9,66.1,30.14,WNW,287,0.0,4.0,67,0.00,,---,0.00,VWS V14.01,2013-09-09 21:58:00,
2013-09-09 18:03:00,77.6,65.8,30.14,SSE,155,0.0,1.0,67,0.00,,---,0.00,VWS V14.01,2013-09-09 22:03:00,
2013-09-09 18:08:00,77.5,66.1,30.14,ESE,105,0.0,1.0,68,0.00,,---,0.00,VWS V14.01,2013-09-09 22:08:00,
2013-09-09 18:13:00,77.4,66.0,30.14,SSE,150,0.0,1.0,68,0.00,,---,0.00,VWS V14.01,2013-09-09 22:13:00,
2013-09-09 18:19:00,77.2,66.2,30.14,South,174,1.0,2.0,69,0.00,,---,0.00,VWS V14.01,2013-09-09 22:19:00,
2013-09-09 18:24:00,77.1,66.2,30.14,South,169,0.0,2.0,69,0.00,,---,0.00,VWS V14.01,2013-09-09 22:24:00,
2013-09-09 18:29:00,76.9,66.0,30.14,SE,136,0.0,2.0,69,0.00,,---,0.00,VWS V14.01,2013-09-09 22:29:00,
2013-09-09 18:34:00,76.8,66.3,30.14,SE,125,0.0,0.0,70,0.00,,---,0.00,VWS V14.01,2013-09-09 22:34:00,
2013-09-09 18:39:00,76.6,66.1,30.14,SW,223,0.0,2.0,70,0.00,,---,0.00,VWS V14.01,2013-09-09 22:39:00,
2013-09-09 18:44:00,76.5,66.0,30.14,North,360,0.0,2.0,70,0.00,,---,0.00,VWS V14.01,2013-09-09 22:44:00,
2013-09-09 18:49:00,76.5,66.0,30.14,NNE,12,0.0,2.0,70,0.00,,---,0.00,VWS V14.01,2013-09-09 22:49:00,
2013-09-09 18:54:00,76.4,65.9,30.14,SSW,193,0.0,2.0,70,0.00,,---,0.00,VWS V14.01,2013-09-09 22:54:00,
2013-09-09 18:59:00,76.4,66.3,30.14,South,191,0.0,2.0,71,0.00,,---,0.00,VWS V14.01,2013-09-09 22:59:00,
2013-09-09 19:04:00,76.2,66.1,30.14,SSW,209,0.0,2.0,71,0.00,,---,0.00,VWS V14.01,2013-09-09 23:04:00,
2013-09-09 19:09:00,76.1,66.0,30.14,SSE,153,0.0,2.0,71,0.00,,---,0.00,VWS V14.01,2013-09-09 23:09:00,
2013-09-09 19:15:00,75.9,66.2,30.14,SW,218,0.0,2.0,72,0.00,,---,0.00,VWS V14.01,2013-09-09 23:15:00,
2013-09-09 19:20:00,75.6,65.9,30.14,SSE,168,1.0,3.0,72,0.00,,---,0.00,VWS V14.01,2013-09-09 23:20:00,
2013-09-09 19:25:00,75.4,66.2,30.14,SE,129,0.0,3.0,73,0.00,,---,0.00,VWS V14.01,2013-09-09 23:25:00,
2013-09-09 19:30:00,75.1,66.2,30.14,SSE,159,0.0,3.0,74,0.00,,---,0.00,VWS V14.01,2013-09-09 23:30:00,
2013-09-09 19:35:00,75.0,66.2,30.14,SSE,159,0.0,0.0,74,0.00,,---,0.00,VWS V14.01,2013-09-09 23:35:00,
2013-09-09 19:40:00,74.8,66.3,30.14,SSE,159,0.0,1.0,75,0.00,,---,0.00,VWS V14.01,2013-09-09 23:40:00,
2013-09-09 19:45:00,74.6,66.2,30.14,South,172,0.0,1.0,75,0.00,,---,0.00,VWS V14.01,2013-09-09 23:45:00,
2013-09-09 19:50:00,74.4,66.3,30.14,ESE,103,1.0,2.0,76,0.00,,---,0.00,VWS V14.01,2013-09-09 23:50:00,
2013-09-09 19:55:00,74.4,66.7,30.14,SE,137,1.0,2.0,77,0.00,,---,0.00,VWS V14.01,2013-09-09 23:55:00,
2013-09-09 20:00:00,74.3,66.6,30.15,SSE,164,0.0,3.0,77,0.00,,---,0.00,VWS V14.01,2013-09-10 00:00:00,
2013-09-09 20:05:00,74.2,66.5,30.15,SE,124,0.0,2.0,77,0.00,,---,0.00,VWS V14.01,2013-09-10 00:05:00,
2013-09-09 20:11:00,74.2,66.5,30.15,South,187,0.0,2.0,77,0.00,,---,0.00,VWS V14.01,2013-09-10 00:11:00,
2013-09-09 20:16:00,74.1,66.8,30.15,South,190,0.0,2.0,78,0.00,,---,0.00,VWS V14.01,2013-09-10 00:16:00,
2013-09-09 20:21:00,74.1,66.8,30.15,South,187,0.0,2.0,78,0.00,,---,0.00,VWS V14.01,2013-09-10 00:21:00,
2013-09-09 20:26:00,74.1,66.8,30.15,South,174,0.0,2.0,78,0.00,,---,0.00,VWS V14.01,2013-09-10 00:26:00,
2013-09-09 20:31:00,74.2,66.9,30.15,SSE,162,0.0,1.0,78,0.00,,---,0.00,VWS V14.01,2013-09-10 00:31:00,
2013-09-09 20:36:00,74.2,66.9,30.15,SSE,162,0.0,1.0,78,0.00,,---,0.00,VWS V14.01,2013-09-10 00:36:00,
2013-09-09 20:41:00,74.2,66.9,30.15,SSE,161,0.0,1.0,78,0.00,,---,0.00,VWS V14.01,2013-09-10 00:41:00,
2013-09-09 20:46:00,74.2,66.9,30.16,SSE,152,0.0,1.0,78,0.00,,---,0.00,VWS V14.01,2013-09-10 00:46:00,
2013-09-09 20:51:00,74.2,66.9,30.16,WSW,238,0.0,3.0,78,0.00,,---,0.00,VWS V14.01,2013-09-10 00:51:00,
2013-09-09 20:56:00,74.3,67.0,30.15,SE,139,0.0,3.0,78,0.00,,---,0.00,VWS V14.01,2013-09-10 00:56:00,
2013-09-09 21:01:00,74.3,67.0,30.16,South,191,0.0,0.0,78,0.00,,---,0.00,VWS V14.01,2013-09-10 01:01:00,
2013-09-09 21:07:00,74.3,67.0,30.16,SSE,148,0.0,2.0,78,0.00,,---,0.00,VWS V14.01,2013-09-10 01:07:00,
2013-09-09 21:12:00,74.3,67.0,30.16,SE,142,0.0,2.0,78,0.00,,---,0.00,VWS V14.01,2013-09-10 01:12:00,
2013-09-09 21:17:00,74.2,66.9,30.16,WSW,257,0.0,2.0,78,0.00,,---,0.00,VWS V14.01,2013-09-10 01:17:00,
2013-09-09 21:22:00,74.2,67.3,30.16,SE,129,0.0,2.0,79,0.00,,---,0.00,VWS V14.01,2013-09-10 01:22:00,
2013-09-09 21:27:00,74.1,67.2,30.16,SE,129,0.0,2.0,79,0.00,,---,0.00,VWS V14.01,2013-09-10 01:27:00,
2013-09-09 21:32:00,74.0,67.1,30.16,SE,129,0.0,0.0,79,0.00,,---,0.00,VWS V14.01,2013-09-10 01:32:00,
2013-09-09 21:37:00,73.9,67.0,30.16,SE,129,0.0,0.0,79,0.00,,---,0.00,VWS V14.01,2013-09-10 01:37:00,
2013-09-09 21:42:00,73.9,67.3,30.16,SE,129,0.0,0.0,80,0.00,,---,0.00,VWS V14.01,2013-09-10 01:42:00,
2013-09-09 21:47:00,73.8,67.2,30.16,SE,129,0.0,0.0,80,0.00,,---,0.00,VWS V14.01,2013-09-10 01:47:00,
2013-09-09 21:52:00,73.8,67.2,30.16,SE,129,0.0,0.0,80,0.00,,---,0.00,VWS V14.01,2013-09-10 01:52:00,
2013-09-09 21:57:00,73.8,67.2,30.16,SE,129,0.0,0.0,80,0.00,,---,0.00,VWS V14.01,2013-09-10 01:57:00,
2013-09-09 22:03:00,73.7,67.2,30.16,SE,129,0.0,0.0,80,0.00,,---,0.00,VWS V14.01,2013-09-10 02:03:00,
2013-09-09 22:08:00,73.7,67.5,30.16,ESE,121,1.0,1.0,81,0.00,,---,0.00,VWS V14.01,2013-09-10 02:08:00,
2013-09-09 22:13:00,73.7,67.5,30.16,ESE,121,0.0,1.0,81,0.00,,---,0.00,VWS V14.01,2013-09-10 02:13:00,
2013-09-09 22:18:00,73.7,67.5,30.16,SW,221,0.0,1.0,81,0.00,,---,0.00,VWS V14.01,2013-09-10 02:18:00,
2013-09-09 22:23:00,73.7,67.5,30.16,SE,129,0.0,2.0,81,0.00,,---,0.00,VWS V14.01,2013-09-10 02:23:00,
2013-09-09 22:28:00,73.7,67.5,30.16,SE,136,0.0,2.0,81,0.00,,---,0.00,VWS V14.01,2013-09-10 02:28:00,
2013-09-09 22:33:00,73.7,67.5,30.16,South,181,1.0,1.0,81,0.00,,---,0.00,VWS V14.01,2013-09-10 02:33:00,
2013-09-09 22:38:00,73.6,67.8,30.16,South,180,0.0,1.0,82,0.00,,---,0.00,VWS V14.01,2013-09-10 02:38:00,
2013-09-09 22:43:00,73.5,67.7,30.16,SSE,162,0.0,2.0,82,0.00,,---,0.00,VWS V14.01,2013-09-10 02:43:00,
2013-09-09 22:48:00,73.3,67.8,30.16,East,95,0.0,2.0,83,0.00,,---,0.00,VWS V14.01,2013-09-10 02:48:00,
2013-09-09 22:53:00,73.3,67.8,30.16,SSE,158,0.0,3.0,83,0.00,,---,0.00,VWS V14.01,2013-09-10 02:53:00,
2013-09-09 22:58:00,73.2,67.7,30.17,WSW,250,0.0,3.0,83,0.00,,---,0.00,VWS V14.01,2013-09-10 02:58:00,
2013-09-09 23:04:00,73.2,67.7,30.17,WSW,250,0.0,0.0,83,0.00,,---,0.00,VWS V14.01,2013-09-10 03:04:00,
2013-09-09 23:09:00,73.1,67.6,30.17,South,184,0.0,1.0,83,0.00,,---,0.00,VWS V14.01,2013-09-10 03:09:00,
2013-09-09 23:14:00,73.1,68.0,30.17,South,184,0.0,1.0,84,0.00,,---,0.00,VWS V14.01,2013-09-10 03:14:00,
2013-09-09 23:19:00,73.0,67.9,30.17,South,190,0.0,3.0,84,0.00,,---,0.00,VWS V14.01,2013-09-10 03:19:00,
2013-09-09 23:24:00,73.0,67.9,30.17,ESE,120,0.0,3.0,84,0.00,,---,0.00,VWS V14.01,2013-09-10 03:24:00,
2013-09-09 23:29:00,73.0,67.9,30.17,SSE,152,0.0,3.0,84,0.00,,---,0.00,VWS V14.01,2013-09-10 03:29:00,
2013-09-09 23:34:00,73.0,67.9,30.16,SSE,155,0.0,1.0,84,0.00,,---,0.00,VWS V14.01,2013-09-10 03:34:00,
2013-09-09 23:39:00,73.0,68.2,30.16,South,176,2.0,4.0,85,0.00,,---,0.00,VWS V14.01,2013-09-10 03:39:00,
2013-09-09 23:44:00,72.9,68.1,30.17,West,278,0.0,4.0,85,0.00,,---,0.00,VWS V14.01,2013-09-10 03:44:00,
2013-09-09 23:49:00,72.9,68.1,30.17,West,278,0.0,4.0,85,0.00,,---,0.00,VWS V14.01,2013-09-10 03:49:00,
2013-09-09 23:54:00,72.9,68.1,30.16,WSW,257,1.0,4.0,85,0.00,,---,0.00,VWS V14.01,2013-09-10 03:54:00,